| time (UTC) | temp F | wind direction | speed MPH | gust MPH | rain 1hr in | rain 24hr in | rain mn in | humidity % | barometer mb |
| 20260906185424 | 86 | 79 | 0.0 | 2.0 | 0.00 | 0.00 | 0.00 | 70 | 1012.8 |
| 20260906184923 | 86 | 124 | 0.0 | 3.0 | 0.00 | 0.00 | 0.00 | 68 | 1012.8 |
| 20260906184419 | 86 | 118 | 1.0 | 3.0 | 0.00 | 0.00 | 0.00 | 69 | 1013.0 |
| 20260906183913 | 85 | 114 | 0.0 | 2.0 | 0.00 | 0.00 | 0.00 | 68 | 1012.8 |
| 20260906183410 | 86 | 188 | 0.0 | 2.0 | 0.00 | 0.00 | 0.00 | 68 | 1013.0 |
| 20260906182905 | 85 | 230 | 0.0 | 3.0 | 0.00 | 0.00 | 0.00 | 69 | 1013.1 |
| 20260906182401 | 86 | 19 | 0.0 | 2.0 | 0.00 | 0.00 | 0.00 | 68 | 1013.1 |
| 20260906181856 | 86 | 60 | 2.0 | 3.0 | 0.00 | 0.00 | 0.00 | 67 | 1013.0 |
| 20260906181352 | 86 | 245 | 0.0 | 2.0 | 0.00 | 0.00 | 0.00 | 68 | 1013.2 |
| 20260906180848 | 86 | 174 | 0.0 | 2.0 | 0.00 | 0.00 | 0.00 | 68 | 1013.1 |
| 20260906180342 | 86 | 89 | 0.0 | 2.0 | 0.00 | 0.00 | 0.00 | 68 | 1013.4 |
| 20260906175839 | 86 | 220 | 0.0 | 2.0 | 0.00 | 0.00 | 0.00 | 68 | 1013.3 |
| 20260906175335 | 86 | 103 | 0.0 | 3.0 | 0.00 | 0.00 | 0.00 | 68 | 1013.3 |
| 20260906174834 | 86 | 109 | 3.0 | 3.0 | 0.00 | 0.00 | 0.00 | 68 | 1013.4 |
| 20260906174333 | 86 | 135 | 2.0 | 4.0 | 0.00 | 0.00 | 0.00 | 66 | 1013.3 |
| 20260906173828 | 86 | 145 | 2.0 | 3.0 | 0.00 | 0.00 | 0.00 | 67 | 1013.4 |
| 20260906173324 | 86 | 114 | 0.0 | 3.0 | 0.00 | 0.00 | 0.00 | 68 | 1013.4 |
| 20260906172823 | 86 | 123 | 1.0 | 2.0 | 0.00 | 0.00 | 0.00 | 67 | 1013.5 |
| 20260906172320 | 85 | 189 | 2.0 | 3.0 | 0.00 | 0.00 | 0.00 | 68 | 1013.4 |
| 20260906171820 | 85 | 104 | 2.0 | 3.0 | 0.00 | 0.00 | 0.00 | 69 | 1013.7 |
| 20260906171314 | 85 | 145 | 1.0 | 2.0 | 0.00 | 0.00 | 0.00 | 69 | 1013.9 |
| 20260906170810 | 85 | 123 | 2.0 | 2.0 | 0.00 | 0.00 | 0.00 | 69 | 1014.0 |
| 20260906170306 | 85 | 216 | 1.0 | 3.0 | 0.00 | 0.00 | 0.00 | 69 | 1014.1 |
| 20260906165802 | 85 | 156 | 1.0 | 2.0 | 0.00 | 0.00 | 0.00 | 68 | 1014.0 |
| 20260906165256 | 85 | 207 | 2.0 | 3.0 | 0.00 | 0.00 | 0.00 | 68 | 1014.0 |
| 20260906164755 | 85 | 262 | 0.0 | 3.0 | 0.00 | 0.00 | 0.00 | 68 | 1013.9 |
| 20260906164250 | 85 | 152 | 0.0 | 2.0 | 0.00 | 0.00 | 0.00 | 69 | 1013.9 |
| 20260906163746 | 85 | 189 | 1.0 | 4.0 | 0.00 | 0.00 | 0.00 | 67 | 1013.9 |
| 20260906163243 | 86 | 132 | 1.0 | 3.0 | 0.00 | 0.00 | 0.00 | 66 | 1013.8 |
| 20260906162739 | 86 | 143 | 1.0 | 4.0 | 0.00 | 0.00 | 0.00 | 66 | 1014.0 |
| 20260906162234 | 85 | 241 | 0.0 | 2.0 | 0.00 | 0.00 | 0.00 | 67 | 1013.8 |
| 20260906161734 | 84 | 322 | 0.0 | 1.0 | 0.00 | 0.00 | 0.00 | 68 | 1014.0 |
| 20260906161233 | 84 | 105 | 2.0 | 2.0 | 0.00 | 0.00 | 0.00 | 69 | 1014.1 |
| 20260906160732 | 84 | 86 | 1.0 | 3.0 | 0.00 | 0.00 | 0.00 | 70 | 1014.0 |
| 20260906160231 | 83 | 49 | 2.0 | 3.0 | 0.00 | 0.00 | 0.00 | 69 | 1014.1 |
| 20260906155729 | 84 | 249 | 2.0 | 4.0 | 0.00 | 0.00 | 0.00 | 69 | 1014.2 |
| 20260906155224 | 84 | 132 | 0.0 | 1.0 | 0.00 | 0.00 | 0.00 | 70 | 1014.2 |
| 20260906154720 | 83 | 79 | 0.0 | 3.0 | 0.00 | 0.00 | 0.00 | 70 | 1014.2 |
| 20260906154215 | 82 | 264 | 1.0 | 3.0 | 0.00 | 0.00 | 0.00 | 71 | 1014.2 |
| 20260906153713 | 82 | 283 | 0.0 | 3.0 | 0.00 | 0.00 | 0.00 | 71 | 1014.2 |
| 20260906153208 | 82 | 222 | 1.0 | 3.0 | 0.00 | 0.00 | 0.00 | 72 | 1014.3 |
| 20260906152703 | 82 | 146 | 0.0 | 2.0 | 0.00 | 0.00 | 0.00 | 73 | 1014.3 |
| 20260906152157 | 82 | 257 | 3.0 | 3.0 | 0.00 | 0.00 | 0.00 | 72 | 1014.3 |
| 20260906151651 | 82 | 243 | 0.0 | 3.0 | 0.00 | 0.00 | 0.00 | 74 | 1014.0 |
| 20260906151148 | 81 | 78 | 0.0 | 2.0 | 0.00 | 0.00 | 0.00 | 77 | 1014.1 |
| 20260906150643 | 80 | 146 | 0.0 | 4.0 | 0.00 | 0.00 | 0.00 | 77 | 1014.1 |
| 20260906150138 | 81 | 94 | 0.0 | 1.0 | 0.00 | 0.00 | 0.00 | 79 | 1014.3 |
| 20260906145637 | 80 | 82 | 0.0 | 2.0 | 0.00 | 0.00 | 0.00 | 79 | 1014.0 |
| 20260906145131 | 80 | 107 | 0.0 | 3.0 | 0.00 | 0.00 | 0.00 | 81 | 1013.8 |
| 20260906144631 | 79 | 1 | 0.0 | 3.0 | 0.00 | 0.00 | 0.00 | 80 | 1013.8 |
| 20260906144127 | 80 | 326 | 0.0 | 2.0 | 0.00 | 0.00 | 0.00 | 81 | 1014.2 |
| 20260906143626 | 79 | 326 | 0.0 | 4.0 | 0.00 | 0.00 | 0.00 | 80 | 1014.2 |
| 20260906143124 | 79 | 286 | 0.0 | 5.0 | 0.00 | 0.00 | 0.00 | 81 | 1014.1 |
| 20260906142622 | 80 | 19 | 0.0 | 1.0 | 0.00 | 0.00 | 0.00 | 79 | 1014.0 |
| 20260906142118 | 80 | 3 | 2.0 | 3.0 | 0.00 | 0.00 | 0.00 | 78 | 1014.1 |
| 20260906141617 | 80 | 6 | 0.0 | 2.0 | 0.00 | 0.00 | 0.00 | 78 | 1014.2 |
| 20260906141112 | 80 | 264 | 2.0 | 6.0 | 0.00 | 0.00 | 0.00 | 79 | 1014.3 |
| 20260906140611 | 80 | 290 | 2.0 | 3.0 | 0.00 | 0.00 | 0.00 | 79 | 1014.0 |
| 20260906140106 | 79 | 299 | 1.0 | 2.0 | 0.00 | 0.00 | 0.00 | 80 | 1013.5 |
| 20260906135603 | 79 | 94 | 1.0 | 3.0 | 0.00 | 0.00 | 0.00 | 81 | 1013.3 |
| 20260906135059 | 79 | 118 | 2.0 | 4.0 | 0.00 | 0.00 | 0.00 | 80 | 1013.6 |
| 20260906134555 | 79 | 97 | 2.0 | 4.0 | 0.00 | 0.00 | 0.00 | 80 | 1013.5 |
| 20260906134055 | 79 | 100 | 2.0 | 3.0 | 0.00 | 0.00 | 0.00 | 81 | 1013.5 |
| 20260906133550 | 79 | 97 | 3.0 | 4.0 | 0.00 | 0.00 | 0.00 | 81 | 1013.9 |
| 20260906133045 | 79 | 92 | 0.0 | 3.0 | 0.00 | 0.00 | 0.00 | 80 | 1013.4 |
| 20260906132540 | 79 | 116 | 2.0 | 5.0 | 0.00 | 0.00 | 0.00 | 80 | 1013.5 |
| 20260906132036 | 78 | 115 | 2.0 | 3.0 | 0.00 | 0.00 | 0.00 | 81 | 1013.5 |
| 20260906131531 | 78 | 82 | 2.0 | 3.0 | 0.00 | 0.00 | 0.00 | 81 | 1013.4 |
| 20260906131027 | 78 | 109 | 3.0 | 4.0 | 0.00 | 0.00 | 0.00 | 81 | 1013.5 |
| 20260906130526 | 79 | 102 | 2.0 | 4.0 | 0.00 | 0.00 | 0.00 | 81 | 1013.4 |
| 20260906130021 | 78 | 91 | 2.0 | 4.0 | 0.00 | 0.00 | 0.00 | 81 | 1013.3 |
| 20260906125518 | 78 | 97 | 3.0 | 4.0 | 0.00 | 0.00 | 0.00 | 82 | 1013.3 |
| 20260906125013 | 78 | 109 | 2.0 | 3.0 | 0.00 | 0.00 | 0.00 | 82 | 1013.3 |
| 20260906124509 | 78 | 101 | 2.0 | 4.0 | 0.00 | 0.00 | 0.00 | 81 | 1013.4 |
| 20260906124004 | 78 | 87 | 2.0 | 5.0 | 0.00 | 0.00 | 0.00 | 81 | 1013.2 |
| 20260906123502 | 78 | 92 | 2.0 | 4.0 | 0.00 | 0.00 | 0.00 | 81 | 1013.1 |
| 20260906122956 | 78 | 76 | 2.0 | 3.0 | 0.00 | 0.00 | 0.00 | 81 | 1012.8 |
| 20260906122451 | 78 | 81 | 2.0 | 3.0 | 0.00 | 0.00 | 0.00 | 80 | 1013.0 |
| 20260906121948 | 78 | 113 | 2.0 | 3.0 | 0.00 | 0.00 | 0.00 | 81 | 1012.8 |
| 20260906121444 | 78 | 90 | 1.0 | 3.0 | 0.00 | 0.00 | 0.00 | 80 | 1013.0 |
| 20260906120940 | 78 | 101 | 2.0 | 3.0 | 0.00 | 0.00 | 0.00 | 80 | 1012.7 |
| 20260906120435 | 78 | 109 | 1.0 | 3.0 | 0.00 | 0.00 | 0.00 | 79 | 1012.6 |
| 20260906115931 | 78 | 132 | 2.0 | 3.0 | 0.00 | 0.00 | 0.00 | 80 | 1012.7 |
| 20260906115427 | 78 | 110 | 2.0 | 3.0 | 0.00 | 0.00 | 0.00 | 80 | 1012.7 |
| 20260906114926 | 78 | 79 | 2.0 | 3.0 | 0.00 | 0.00 | 0.00 | 80 | 1012.5 |
| 20260906114421 | 78 | 83 | 2.0 | 4.0 | 0.00 | 0.00 | 0.00 | 79 | 1012.5 |
| 20260906113917 | 79 | 93 | 2.0 | 4.0 | 0.00 | 0.00 | 0.00 | 78 | 1012.4 |
| 20260906113415 | 79 | 99 | 3.0 | 4.0 | 0.00 | 0.00 | 0.00 | 79 | 1012.4 |
| 20260906112911 | 79 | 83 | 1.0 | 3.0 | 0.00 | 0.00 | 0.00 | 78 | 1012.3 |
| 20260906112407 | 79 | 105 | 2.0 | 3.0 | 0.00 | 0.00 | 0.00 | 78 | 1012.4 |
| 20260906111902 | 79 | 109 | 3.0 | 5.0 | 0.00 | 0.00 | 0.00 | 77 | 1012.3 |
| 20260906111401 | 79 | 133 | 0.0 | 4.0 | 0.00 | 0.00 | 0.00 | 78 | 1012.4 |
| 20260906110856 | 79 | 111 | 2.0 | 3.0 | 0.00 | 0.00 | 0.00 | 78 | 1012.4 |
| 20260906110352 | 79 | 120 | 2.0 | 3.0 | 0.00 | 0.00 | 0.00 | 77 | 1012.2 |
| 20260906105851 | 79 | 126 | 1.0 | 3.0 | 0.00 | 0.00 | 0.00 | 77 | 1012.3 |
| 20260906105347 | 79 | 107 | 1.0 | 3.0 | 0.00 | 0.00 | 0.00 | 78 | 1012.1 |
| 20260906104842 | 79 | 97 | 2.0 | 3.0 | 0.00 | 0.00 | 0.00 | 77 | 1012.4 |
| 20260906104341 | 80 | 122 | 1.0 | 4.0 | 0.00 | 0.00 | 0.00 | 76 | 1012.3 |
| 20260906103839 | 80 | 110 | 3.0 | 4.0 | 0.00 | 0.00 | 0.00 | 77 | 1012.2 |
| 20260906103338 | 79 | 118 | 2.0 | 3.0 | 0.00 | 0.00 | 0.00 | 77 | 1012.3 |
| 20260906102834 | 80 | 119 | 2.0 | 3.0 | 0.00 | 0.00 | 0.00 | 77 | 1012.3 |
| 20260906102333 | 80 | 86 | 1.0 | 4.0 | 0.00 | 0.00 | 0.00 | 76 | 1012.4 |
| 20260906101828 | 79 | 119 | 1.0 | 3.0 | 0.00 | 0.00 | 0.00 | 77 | 1012.4 |
| 20260906101323 | 80 | 108 | 2.0 | 3.0 | 0.00 | 0.00 | 0.00 | 77 | 1012.4 |
| 20260906100819 | 80 | 130 | 0.0 | 4.0 | 0.00 | 0.00 | 0.00 | 76 | 1012.1 |
| 20260906100318 | 80 | 118 | 2.0 | 4.0 | 0.00 | 0.00 | 0.00 | 77 | 1012.2 |
| 20260906095813 | 79 | 118 | 2.0 | 3.0 | 0.00 | 0.00 | 0.00 | 78 | 1012.2 |
| 20260906095309 | 80 | 129 | 2.0 | 4.0 | 0.00 | 0.00 | 0.00 | 77 | 1012.1 |
| 20260906094808 | 80 | 129 | 3.0 | 6.0 | 0.00 | 0.00 | 0.00 | 77 | 1012.1 |
| 20260906094303 | 79 | 119 | 2.0 | 4.0 | 0.00 | 0.00 | 0.00 | 78 | 1011.9 |
| 20260906093759 | 79 | 124 | 2.0 | 4.0 | 0.00 | 0.00 | 0.00 | 79 | 1011.9 |
| 20260906093255 | 80 | 119 | 3.0 | 4.0 | 0.00 | 0.00 | 0.00 | 78 | 1012.0 |
| 20260906092749 | 79 | 137 | 2.0 | 4.0 | 0.00 | 0.00 | 0.00 | 79 | 1012.2 |
| 20260906092244 | 79 | 112 | 2.0 | 4.0 | 0.00 | 0.00 | 0.00 | 79 | 1012.4 |
| 20260906091740 | 79 | 105 | 2.0 | 5.0 | 0.00 | 0.00 | 0.00 | 79 | 1012.0 |
| 20260906091236 | 80 | 106 | 3.0 | 4.0 | 0.00 | 0.00 | 0.00 | 78 | 1012.4 |
| 20260906090732 | 79 | 121 | 2.0 | 5.0 | 0.00 | 0.00 | 0.00 | 79 | 1012.3 |
| 20260906090231 | 80 | 99 | 2.0 | 5.0 | 0.00 | 0.00 | 0.00 | 79 | 1012.2 |
| 20260906085731 | 80 | 109 | 2.0 | 4.0 | 0.00 | 0.00 | 0.00 | 78 | 1012.3 |
| 20260906085230 | 80 | 116 | 3.0 | 5.0 | 0.00 | 0.00 | 0.00 | 78 | 1012.3 |
| 20260906084725 | 80 | 108 | 3.0 | 5.0 | 0.00 | 0.00 | 0.00 | 78 | 1012.3 |
| 20260906084224 | 80 | 114 | 2.0 | 3.0 | 0.00 | 0.00 | 0.00 | 77 | 1012.3 |
| 20260906083720 | 80 | 103 | 3.0 | 5.0 | 0.00 | 0.00 | 0.00 | 77 | 1012.4 |
| 20260906083215 | 80 | 124 | 2.0 | 4.0 | 0.00 | 0.00 | 0.00 | 77 | 1012.4 |
| 20260906082710 | 80 | 138 | 2.0 | 4.0 | 0.00 | 0.00 | 0.00 | 78 | 1012.5 |
| 20260906082205 | 80 | 115 | 3.0 | 3.0 | 0.00 | 0.00 | 0.00 | 77 | 1012.3 |
| 20260906081701 | 80 | 128 | 3.0 | 4.0 | 0.00 | 0.00 | 0.00 | 77 | 1012.3 |
| 20260906081150 | 80 | 125 | 2.0 | 5.0 | 0.00 | 0.00 | 0.00 | 78 | 1012.2 |
| 20260906080647 | 80 | 104 | 2.0 | 6.0 | 0.00 | 0.00 | 0.00 | 78 | 1012.0 |
| 20260906080143 | 80 | 124 | 3.0 | 5.0 | 0.00 | 0.00 | 0.00 | 77 | 1012.0 |
| 20260906075642 | 80 | 114 | 3.0 | 5.0 | 0.00 | 0.00 | 0.00 | 78 | 1012.2 |
| 20260906075136 | 80 | 107 | 2.0 | 3.0 | 0.00 | 0.00 | 0.00 | 78 | 1012.1 |
| 20260906074632 | 80 | 91 | 3.0 | 5.0 | 0.00 | 0.00 | 0.00 | 78 | 1012.1 |
| 20260906074130 | 80 | 117 | 4.0 | 5.0 | 0.00 | 0.00 | 0.00 | 77 | 1012.2 |
| 20260906073626 | 80 | 110 | 3.0 | 6.0 | 0.00 | 0.00 | 0.00 | 78 | 1012.2 |
| 20260906073121 | 80 | 120 | 2.0 | 4.0 | 0.00 | 0.00 | 0.00 | 77 | 1012.0 |
| 20260906072616 | 81 | 118 | 3.0 | 4.0 | 0.00 | 0.00 | 0.00 | 75 | 1012.0 |
| 20260906072112 | 81 | 115 | 3.0 | 5.0 | 0.00 | 0.00 | 0.00 | 75 | 1012.0 |
| 20260906071608 | 81 | 118 | 3.0 | 4.0 | 0.00 | 0.00 | 0.00 | 74 | 1011.9 |
| 20260906071103 | 82 | 113 | 3.0 | 6.0 | 0.00 | 0.00 | 0.00 | 73 | 1011.9 |
| 20260906070600 | 81 | 109 | 2.0 | 5.0 | 0.00 | 0.00 | 0.00 | 75 | 1012.1 |
| 20260906070055 | 81 | 114 | 3.0 | 5.0 | 0.00 | 0.00 | 0.00 | 76 | 1012.1 |
| 20260906065554 | 81 | 116 | 3.0 | 4.0 | 0.00 | 0.00 | 0.00 | 76 | 1012.2 |
| 20260906065050 | 81 | 99 | 2.0 | 5.0 | 0.00 | 0.00 | 0.00 | 75 | 1012.3 |
| 20260906064546 | 81 | 108 | 3.0 | 5.0 | 0.00 | 0.00 | 0.00 | 76 | 1012.0 |
| 20260906064040 | 81 | 97 | 3.0 | 5.0 | 0.00 | 0.00 | 0.00 | 76 | 1012.3 |
| 20260906063535 | 81 | 117 | 3.0 | 3.0 | 0.00 | 0.00 | 0.00 | 76 | 1012.4 |
| 20260906063026 | 81 | 124 | 2.0 | 5.0 | 0.00 | 0.00 | 0.00 | 76 | 1012.2 |
| 20260906062521 | 81 | 105 | 3.0 | 4.0 | 0.00 | 0.00 | 0.00 | 77 | 1012.1 |
| 20260906062015 | 81 | 111 | 3.0 | 5.0 | 0.00 | 0.00 | 0.00 | 77 | 1012.0 |
| 20260906061511 | 81 | 110 | 3.0 | 5.0 | 0.00 | 0.00 | 0.00 | 76 | 1012.4 |
| 20260906061005 | 81 | 115 | 3.0 | 4.0 | 0.00 | 0.00 | 0.00 | 76 | 1012.1 |
| 20260906060502 | 81 | 92 | 3.0 | 4.0 | 0.00 | 0.00 | 0.00 | 75 | 1012.3 |
| 20260906055958 | 82 | 93 | 2.0 | 5.0 | 0.00 | 0.00 | 0.00 | 74 | 1012.5 |
| 20260906055454 | 82 | 112 | 2.0 | 4.0 | 0.00 | 0.00 | 0.00 | 73 | 1012.4 |
| 20260906054949 | 82 | 140 | 2.0 | 4.0 | 0.00 | 0.00 | 0.00 | 73 | 1012.5 |
| 20260906054449 | 82 | 118 | 0.0 | 3.0 | 0.00 | 0.00 | 0.00 | 73 | 1012.2 |
| 20260906053945 | 82 | 121 | 2.0 | 3.0 | 0.00 | 0.00 | 0.00 | 72 | 1012.7 |
| 20260906053441 | 82 | 122 | 3.0 | 4.0 | 0.00 | 0.00 | 0.00 | 72 | 1012.7 |
| 20260906052936 | 82 | 113 | 2.0 | 3.0 | 0.00 | 0.00 | 0.00 | 73 | 1012.4 |
| 20260906052432 | 82 | 112 | 2.0 | 4.0 | 0.00 | 0.00 | 0.00 | 72 | 1012.4 |
| 20260906051929 | 83 | 112 | 2.0 | 4.0 | 0.00 | 0.00 | 0.00 | 71 | 1012.2 |
| 20260906051424 | 83 | 101 | 2.0 | 4.0 | 0.00 | 0.00 | 0.00 | 71 | 1012.3 |
| 20260906050919 | 83 | 107 | 1.0 | 3.0 | 0.00 | 0.00 | 0.00 | 71 | 1012.4 |
| 20260906050414 | 83 | 100 | 2.0 | 5.0 | 0.00 | 0.00 | 0.00 | 70 | 1012.5 |
| 20260906045913 | 83 | 100 | 2.0 | 3.0 | 0.00 | 0.00 | 0.00 | 70 | 1012.4 |
| 20260906045412 | 84 | 100 | 2.0 | 3.0 | 0.00 | 0.00 | 0.00 | 70 | 1012.3 |
| 20260906044908 | 84 | 120 | 1.0 | 3.0 | 0.00 | 0.00 | 0.00 | 70 | 1012.1 |
| 20260906044403 | 84 | 106 | 0.0 | 3.0 | 0.00 | 0.00 | 0.00 | 70 | 1012.2 |
| 20260906043859 | 84 | 98 | 2.0 | 3.0 | 0.00 | 0.00 | 0.00 | 70 | 1012.2 |
| 20260906043354 | 84 | 98 | 2.0 | 4.0 | 0.00 | 0.00 | 0.00 | 70 | 1012.2 |
| 20260906042849 | 84 | 132 | 1.0 | 3.0 | 0.00 | 0.00 | 0.00 | 71 | 1012.3 |
| 20260906042348 | 84 | 82 | 2.0 | 3.0 | 0.00 | 0.00 | 0.00 | 70 | 1011.9 |
| 20260906041844 | 84 | 113 | 2.0 | 3.0 | 0.00 | 0.00 | 0.00 | 69 | 1011.9 |
| 20260906041339 | 85 | 118 | 0.0 | 4.0 | 0.00 | 0.00 | 0.00 | 68 | 1011.9 |
| 20260906040839 | 84 | 117 | 2.0 | 3.0 | 0.00 | 0.00 | 0.00 | 68 | 1012.1 |
| 20260906040335 | 85 | 105 | 1.0 | 2.0 | 0.00 | 0.00 | 0.00 | 67 | 1012.2 |
| 20260906035830 | 85 | 109 | 2.0 | 3.0 | 0.00 | 0.00 | 0.00 | 67 | 1012.4 |
| 20260906035325 | 85 | 113 | 1.0 | 2.0 | 0.00 | 0.00 | 0.00 | 67 | 1012.2 |
| 20260906034821 | 85 | 106 | 1.0 | 2.0 | 0.00 | 0.00 | 0.00 | 67 | 1012.3 |
| 20260906034315 | 86 | 111 | 2.0 | 4.0 | 0.00 | 0.00 | 0.00 | 65 | 1012.4 |
| 20260906033811 | 86 | 130 | 2.0 | 4.0 | 0.00 | 0.00 | 0.00 | 65 | 1012.1 |
| 20260906033310 | 86 | 119 | 2.0 | 3.0 | 0.00 | 0.00 | 0.00 | 65 | 1012.1 |
| 20260906032807 | 86 | 117 | 2.0 | 3.0 | 0.00 | 0.00 | 0.00 | 65 | 1012.0 |
| 20260906032305 | 86 | 146 | 0.0 | 4.0 | 0.00 | 0.00 | 0.00 | 65 | 1012.0 |
| 20260906031757 | 86 | 109 | 3.0 | 3.0 | 0.00 | 0.00 | 0.00 | 64 | 1011.9 |
| 20260906031253 | 86 | 95 | 2.0 | 3.0 | 0.00 | 0.00 | 0.00 | 64 | 1011.9 |
| 20260906030752 | 87 | 123 | 2.0 | 3.0 | 0.00 | 0.00 | 0.00 | 64 | 1011.9 |
| 20260906030248 | 87 | 180 | 0.0 | 3.0 | 0.00 | 0.00 | 0.00 | 63 | 1011.5 |
| 20260906025747 | 87 | 132 | 1.0 | 4.0 | 0.00 | 0.00 | 0.00 | 63 | 1011.5 |
| 20260906025241 | 87 | 109 | 1.0 | 3.0 | 0.00 | 0.00 | 0.00 | 63 | 1011.6 |
| 20260906024740 | 87 | 121 | 2.0 | 4.0 | 0.00 | 0.00 | 0.00 | 63 | 1011.6 |
| 20260906024239 | 87 | 131 | 1.0 | 3.0 | 0.00 | 0.00 | 0.00 | 64 | 1011.3 |
| 20260906023735 | 87 | 162 | 1.0 | 4.0 | 0.00 | 0.00 | 0.00 | 64 | 1011.0 |
| 20260906023231 | 87 | 131 | 3.0 | 3.0 | 0.00 | 0.00 | 0.00 | 64 | 1011.2 |
| 20260906022726 | 88 | 108 | 1.0 | 2.0 | 0.00 | 0.00 | 0.00 | 64 | 1011.0 |
| 20260906022221 | 88 | 103 | 2.0 | 3.0 | 0.00 | 0.00 | 0.00 | 64 | 1011.0 |
| 20260906021717 | 88 | 150 | 1.0 | 4.0 | 0.00 | 0.00 | 0.00 | 63 | 1010.8 |
| 20260906021215 | 89 | 116 | 2.0 | 3.0 | 0.00 | 0.00 | 0.00 | 63 | 1010.9 |
| 20260906020705 | 89 | 126 | 2.0 | 3.0 | 0.00 | 0.00 | 0.00 | 63 | 1010.8 |
| 20260906020200 | 89 | 105 | 2.0 | 4.0 | 0.00 | 0.00 | 0.00 | 63 | 1011.0 |
| 20260906015659 | 89 | 139 | 3.0 | 4.0 | 0.00 | 0.00 | 0.00 | 63 | 1010.7 |
| 20260906015153 | 89 | 120 | 0.0 | 2.0 | 0.00 | 0.00 | 0.00 | 63 | 1010.5 |
| 20260906014652 | 89 | 103 | 2.0 | 3.0 | 0.00 | 0.00 | 0.00 | 62 | 1010.7 |
| 20260906014149 | 89 | 109 | 2.0 | 3.0 | 0.00 | 0.00 | 0.00 | 62 | 1010.8 |
| 20260906013644 | 89 | 62 | 0.0 | 3.0 | 0.00 | 0.00 | 0.00 | 62 | 1010.4 |
| 20260906013140 | 89 | 84 | 0.0 | 2.0 | 0.00 | 0.00 | 0.00 | 61 | 1010.3 |
| 20260906012639 | 89 | 127 | 1.0 | 2.0 | 0.00 | 0.00 | 0.00 | 61 | 1010.3 |
| 20260906012134 | 89 | 82 | 1.0 | 2.0 | 0.00 | 0.00 | 0.00 | 61 | 1010.0 |
| 20260906011630 | 89 | 101 | 0.0 | 1.0 | 0.00 | 0.00 | 0.00 | 60 | 1010.0 |
| 20260906011125 | 90 | 78 | 1.0 | 1.0 | 0.00 | 0.00 | 0.00 | 60 | 1010.0 |
| 20260906010620 | 90 | 82 | 0.0 | 2.0 | 0.00 | 0.00 | 0.00 | 58 | 1010.0 |
| 20260906010116 | 90 | 210 | 0.0 | 1.0 | 0.00 | 0.00 | 0.00 | 57 | 1010.1 |
| 20260906005616 | 91 | 80 | 0.0 | 1.0 | 0.00 | 0.00 | 0.00 | 57 | 1010.2 |
| 20260906005115 | 91 | 57 | 1.0 | 1.0 | 0.00 | 0.00 | 0.00 | 56 | 1009.9 |
| 20260906004614 | 91 | 165 | 1.0 | 3.0 | 0.00 | 0.00 | 0.00 | 56 | 1009.9 |
| 20260906004109 | 91 | 146 | 0.0 | 2.0 | 0.00 | 0.00 | 0.00 | 56 | 1009.7 |
| 20260906003605 | 92 | 123 | 0.0 | 2.0 | 0.00 | 0.00 | 0.00 | 56 | 1010.0 |
| 20260906003101 | 92 | 127 | 1.0 | 3.0 | 0.00 | 0.00 | 0.00 | 55 | 1009.9 |
| 20260906002601 | 92 | 135 | 1.0 | 3.0 | 0.00 | 0.00 | 0.00 | 55 | 1009.9 |
| 20260906002055 | 93 | 105 | 2.0 | 2.0 | 0.00 | 0.00 | 0.00 | 55 | 1010.3 |
| 20260906001551 | 93 | 116 | 0.0 | 2.0 | 0.00 | 0.00 | 0.00 | 54 | 1009.9 |
| 20260906001045 | 93 | 106 | 1.0 | 3.0 | 0.00 | 0.00 | 0.00 | 53 | 1010.2 |
| 20260906000541 | 94 | 123 | 0.0 | 2.0 | 0.00 | 0.00 | 0.00 | 53 | 1010.2 |
| 20260906000036 | 95 | 183 | 2.0 | 2.0 | 0.00 | 0.00 | 0.00 | 51 | 1010.1 |
| 20260905235530 | 95 | 90 | 2.0 | 3.0 | 0.00 | 0.00 | 0.00 | 50 | 1010.1 |
| 20260905235025 | 96 | 160 | 0.0 | 3.0 | 0.00 | 0.00 | 0.00 | 50 | 1010.0 |
| 20260905234520 | 95 | 126 | 0.0 | 3.0 | 0.00 | 0.00 | 0.00 | 50 | 1010.1 |
| 20260905234015 | 95 | 168 | 3.0 | 6.0 | 0.00 | 0.00 | 0.00 | 49 | 1009.9 |
| 20260905233510 | 96 | 160 | 1.0 | 5.0 | 0.00 | 0.00 | 0.00 | 50 | 1009.7 |
| 20260905233009 | 96 | 173 | 0.0 | 4.0 | 0.00 | 0.00 | 0.00 | 50 | 1009.9 |
| 20260905232505 | 96 | 153 | 2.0 | 5.0 | 0.00 | 0.00 | 0.00 | 50 | 1009.6 |
| 20260905232000 | 96 | 140 | 3.0 | 4.0 | 0.00 | 0.00 | 0.00 | 50 | 1009.6 |
| 20260905231455 | 96 | 135 | 2.0 | 4.0 | 0.00 | 0.00 | 0.00 | 50 | 1009.5 |
| 20260905230952 | 96 | 138 | 2.0 | 5.0 | 0.00 | 0.00 | 0.00 | 50 | 1009.7 |
| 20260905230450 | 96 | 149 | 3.0 | 6.0 | 0.00 | 0.00 | 0.00 | 50 | 1009.8 |
| 20260905225949 | 97 | 129 | 1.0 | 3.0 | 0.00 | 0.00 | 0.00 | 50 | 1010.0 |
| 20260905225444 | 96 | 127 | 2.0 | 3.0 | 0.00 | 0.00 | 0.00 | 51 | 1009.7 |
| 20260905224939 | 96 | 147 | 2.0 | 5.0 | 0.00 | 0.00 | 0.00 | 51 | 1009.7 |
| 20260905224435 | 96 | 145 | 2.0 | 6.0 | 0.00 | 0.00 | 0.00 | 51 | 1009.5 |
| 20260905223933 | 96 | 159 | 1.0 | 4.0 | 0.00 | 0.00 | 0.00 | 52 | 1009.7 |
| 20260905223432 | 96 | 143 | 1.0 | 6.0 | 0.00 | 0.00 | 0.00 | 51 | 1009.8 |
| 20260905222927 | 96 | 162 | 3.0 | 6.0 | 0.00 | 0.00 | 0.00 | 51 | 1009.9 |
| 20260905222426 | 96 | 129 | 2.0 | 6.0 | 0.00 | 0.00 | 0.00 | 51 | 1009.8 |
| 20260905221922 | 96 | 145 | 3.0 | 5.0 | 0.00 | 0.00 | 0.00 | 51 | 1009.8 |
| 20260905221418 | 96 | 132 | 3.0 | 5.0 | 0.00 | 0.00 | 0.00 | 51 | 1009.8 |
| 20260905220915 | 96 | 144 | 2.0 | 9.0 | 0.00 | 0.00 | 0.00 | 52 | 1009.8 |
| 20260905220410 | 96 | 125 | 5.0 | 8.0 | 0.00 | 0.00 | 0.00 | 51 | 1009.6 |
| 20260905215909 | 96 | 116 | 3.0 | 5.0 | 0.00 | 0.00 | 0.00 | 53 | 1009.8 |
| 20260905215405 | 96 | 125 | 2.0 | 6.0 | 0.00 | 0.00 | 0.00 | 55 | 1009.7 |
| 20260905214901 | 96 | 134 | 3.0 | 5.0 | 0.00 | 0.00 | 0.00 | 59 | 1010.0 |
| 20260905214356 | 95 | 129 | 3.0 | 5.0 | 0.00 | 0.00 | 0.00 | 59 | 1009.7 |
| 20260905213851 | 95 | 174 | 2.0 | 6.0 | 0.00 | 0.00 | 0.00 | 60 | 1009.9 |
| 20260905213347 | 95 | 115 | 2.0 | 5.0 | 0.00 | 0.00 | 0.00 | 59 | 1010.1 |
| 20260905212842 | 94 | 146 | 3.0 | 5.0 | 0.00 | 0.00 | 0.00 | 61 | 1010.0 |
| 20260905212341 | 95 | 112 | 3.0 | 5.0 | 0.00 | 0.00 | 0.00 | 60 | 1010.1 |
| 20260905211836 | 94 | 80 | 4.0 | 4.0 | 0.00 | 0.00 | 0.00 | 62 | 1010.2 |
| 20260905211331 | 94 | 122 | 4.0 | 9.0 | 0.00 | 0.00 | 0.00 | 62 | 1010.3 |
| 20260905210828 | 95 | 172 | 2.0 | 7.0 | 0.00 | 0.00 | 0.00 | 60 | 1010.4 |
| 20260905210327 | 95 | 111 | 3.0 | 6.0 | 0.00 | 0.00 | 0.00 | 60 | 1010.5 |
| 20260905205826 | 95 | 135 | 3.0 | 7.0 | 0.00 | 0.00 | 0.00 | 59 | 1010.6 |
| 20260905205321 | 95 | 101 | 3.0 | 4.0 | 0.00 | 0.00 | 0.00 | 60 | 1010.6 |
| 20260905204821 | 94 | 149 | 1.0 | 7.0 | 0.00 | 0.00 | 0.00 | 61 | 1010.7 |
| 20260905204317 | 95 | 79 | 2.0 | 9.0 | 0.00 | 0.00 | 0.00 | 59 | 1011.0 |
| 20260905203815 | 95 | 115 | 3.0 | 4.0 | 0.00 | 0.00 | 0.00 | 60 | 1010.8 |
| 20260905203312 | 94 | 92 | 3.0 | 8.0 | 0.00 | 0.00 | 0.00 | 61 | 1011.2 |
| 20260905202807 | 94 | 108 | 3.0 | 5.0 | 0.00 | 0.00 | 0.00 | 60 | 1011.1 |
| 20260905202306 | 95 | 95 | 3.0 | 8.0 | 0.00 | 0.00 | 0.00 | 59 | 1011.2 |
| 20260905201757 | 95 | 46 | 4.0 | 7.0 | 0.00 | 0.00 | 0.00 | 59 | 1011.2 |
| 20260905201253 | 96 | 171 | 2.0 | 5.0 | 0.00 | 0.00 | 0.00 | 57 | 1011.3 |
| 20260905200747 | 95 | 106 | 2.0 | 5.0 | 0.00 | 0.00 | 0.00 | 59 | 1011.4 |
| 20260905200243 | 95 | 100 | 4.0 | 8.0 | 0.00 | 0.00 | 0.00 | 60 | 1011.8 |
| 20260905195741 | 95 | 103 | 3.0 | 5.0 | 0.00 | 0.00 | 0.00 | 59 | 1011.6 |
| 20260905195236 | 95 | 29 | 4.0 | 7.0 | 0.00 | 0.00 | 0.00 | 58 | 1011.8 |
| 20260905194732 | 95 | 139 | 3.0 | 4.0 | 0.00 | 0.00 | 0.00 | 60 | 1011.6 |
| 20260905194231 | 94 | 121 | 0.0 | 6.0 | 0.00 | 0.00 | 0.00 | 60 | 1012.1 |
| 20260905193725 | 95 | 57 | 5.0 | 6.0 | 0.00 | 0.00 | 0.00 | 58 | 1012.2 |
| 20260905193220 | 94 | 71 | 3.0 | 11.0 | 0.00 | 0.00 | 0.00 | 59 | 1012.1 |
| 20260905192716 | 94 | 46 | 4.0 | 8.0 | 0.00 | 0.00 | 0.00 | 59 | 1012.2 |
| 20260905192212 | 93 | 357 | 3.0 | 6.0 | 0.00 | 0.00 | 0.00 | 61 | 1012.5 |
| 20260905191711 | 93 | 91 | 2.0 | 6.0 | 0.00 | 0.00 | 0.00 | 61 | 1012.5 |
| 20260905191209 | 93 | 65 | 3.0 | 13.0 | 0.00 | 0.00 | 0.00 | 59 | 1012.5 |
| 20260905190709 | 94 | 93 | 3.0 | 10.0 | 0.00 | 0.00 | 0.00 | 58 | 1012.5 |
| 20260905190207 | 95 | 40 | 3.0 | 7.0 | 0.00 | 0.00 | 0.00 | 56 | 1012.9 |
| 20260905185706 | 94 | 111 | 2.0 | 6.0 | 0.00 | 0.00 | 0.00 | 58 | 1012.6 |